Погода в Свессе

Украина / Сумская область     51°57′12″N   33°56′08″E
темп.,
°C
ветер,
м/с
пор.,
м/с
влажн.,
%
обл.,
%
осадки,
мм/ч
давл.,
гПа
погр.,
м
15 апреля, чт
чт1500:00+10св3592100 0.4 1014119
03:00+9всв2294100 0.5 101326
06:00+9св3493100 0.3 1012101
09:00+11ю3485100 0.6 1012453
12:00+14ю676193 0.1 10121400
15:00+15ю565399 0.3 10121620
18:00+13ююв466582 0.8 1012694
21:00+10юв347763 1.0 101278
16 апреля, пт
пт1600:00+9вюв388465 0.0 1012244
03:00+7вюв489728 0.1 1012251
06:00+5вюв479521 0.0 1013170
09:00+8юв488781 0.1 1014507
12:00+12юв796087 0.3 10141569
15:00+12юв786067 0.8 10151527
18:00+12юв566144 0.2 10151241
21:00+7ююв35845 0.3 101688
17 апреля, сб
сб1700:00+6юв229212 0.0 101721
03:00+7юв2387100 0.0 101887
06:00+7юз118926 0.1 101816
09:00+9юв227633 0.1 1019574
12:00+13ююв1257100 0.1 10201298
15:00+13ссв2150100 0.1 10191462
18:00+11с3470100 0.1 1020270
21:00+10сз1376100 0.3 1020153
18 апреля, вс
вс1800:00+9зюз2379100 0.0 1021124
03:00+9з2384100 0.1 102197
06:00+8ссз228899 0.0 102253
09:00+10всв2282100 0.0 1022301
12:00+11всв238090 0.0 1023548
15:00+14в466788 0.3 10231137
18:00+14всв466670 0.3 1022906
21:00+11в5137296 0.5 1023387
19 апреля, пн
пн1900:00+9вюв51277100 0.0 1025327
03:00+7в388742 0.0 1025148
06:00+7в51286100 0.0 1024328
09:00+11вюв71270100 0.0 1024934
12:00+14вюв91354100 0.0 10221604
15:00+15вюв91246100 0.0 10202170
18:00+14вюв81354100 0.0 10191346
21:00+11в81461100 0.4 10191129